Location: Auckland
(36.8670°S, 174.7670°E)
Time: 10:21:53
(UTC+13:00)

ISS - Pass Details

Date: 26 January 2019
Orbit: 403 x 411 km, 51.6° (Epoch: 20 February)

Event Time Altitude Azimuth Distance (km) Brightness Sun altitude
Exits shadow 05:35:49 - 355° (N) 1,934 -0.8 -10.2°
Reaches altitude 10° 05:37:18 10° 10° (N) 1,477 -1.2 -9.9°
Maximum altitude 05:39:28 16° 51° (NE) 1,151 -1.3 -9.6°
Drops below altitude 10° 05:41:40 10° 92° (E) 1,487 0.1 -9.2°
Sets 05:44:17 0° 114° (ESE) 2,355 2.3 -8.7°
